Вернуться в каталог

THOR ABLESTAR DEB

АктивенLEO
NORAD 409·DEBRIS·🇺🇸 United States

Запущен Jun 29, 1961 с Cape Canaveral Space Force Station

Loading…

Ближайшие Пролёты (ближайшие 24 часа)

TLE

СвежийSource: Space-Track

Эпоха: Sep 7, 2026, 01:38 UTC

1 00409U 61015EJ  26250.06840450  .00000444  00000-0  20477-3 0  9993
2 00409  66.7123 135.8737 0057168 120.4312 240.2451 14.29106210353009

Отслеживайте THOR ABLESTAR DEB в реальном времени с AllMySat

Download on the App Store